• In Hungary
  • List of Countries
  • For 7 days
  • Water Temperature
  • Satellite Maps
  • Weather Map
  • News
  • Weather Widgets
  • user-avatar
    Login

    Hourly Weather Anuradhapura

    Today, 21 August, Tuesday

    Time Temperature Precipitation Wind Pressure Humidity
    00:00 +28°C° 0 mm 5 mps 748 mmHg 80%
    01:00 +28°C° 0 mm 6 mps 748 mmHg 81%
    02:00 +28°C° 0 mm 6 mps 748 mmHg 81%
    03:00 +27°C° 0 mm 6 mps 748 mmHg 81%
    04:00 +27°C° 0 mm 6 mps 748 mmHg 81%
    05:00 +27°C° 0 mm 6 mps 748 mmHg 81%
    06:00 +28°C° 0 mm 6 mps 748 mmHg 77%
    07:00 +29°C° 0 mm 6 mps 749 mmHg 72%
    08:00 +30°C° 0 mm 7 mps 749 mmHg 68%
    09:00 +32°C° 0 mm 7 mps 749 mmHg 63%
    10:00 +34°C° 0 mm 7 mps 749 mmHg 58%
    11:00 +35°C° 0 mm 7 mps 749 mmHg 52%
    12:00 +35°C° 0 mm 7 mps 748 mmHg 52%
    13:00 +35°C° 0 mm 7 mps 748 mmHg 52%
    14:00 +35°C° 0 mm 7 mps 747 mmHg 52%
    15:00 +34°C° 0 mm 7 mps 747 mmHg 56%
    16:00 +33°C° 0 mm 6 mps 747 mmHg 60%
    17:00 +32°C° 0 mm 6 mps 747 mmHg 64%
    18:00 +30°C° 0 mm 6 mps 747 mmHg 68%
    19:00 +29°C° 0 mm 6 mps 748 mmHg 72%
    20:00 +28°C° 0 mm 5 mps 748 mmHg 77%
    21:00 +28°C° 0 mm 5 mps 748 mmHg 78%
    22:00 +28°C° 0 mm 5 mps 749 mmHg 79%
    23:00 +28°C° 0 mm 5 mps 749 mmHg 80%

    Tomorrow, 22 August, Wednesday

    Time Temperature Precipitation Wind Pressure Humidity
    00:00 +27°C° 0 mm 5 mps 749 mmHg 80%
    01:00 +27°C° 0 mm 5 mps 748 mmHg 81%
    02:00 +27°C° 0 mm 5 mps 748 mmHg 82%
    03:00 +27°C° 0 mm 5 mps 748 mmHg 83%
    04:00 +27°C° 0 mm 5 mps 748 mmHg 84%
    05:00 +27°C° 0 mm 4 mps 748 mmHg 84%
    06:00 +28°C° 0 mm 5 mps 748 mmHg 79%
    07:00 +29°C° 0 mm 5 mps 749 mmHg 75%
    08:00 +30°C° 0 mm 5 mps 749 mmHg 70%
    09:00 +32°C° 0 mm 5 mps 749 mmHg 64%
    10:00 +34°C° 0 mm 5 mps 749 mmHg 59%
    11:00 +35°C° 0 mm 5 mps 749 mmHg 53%
    12:00 +35°C° 0.2 mm 5 mps 749 mmHg 54%
    13:00 +35°C° 0.2 mm 5 mps 748 mmHg 55%
    14:00 +35°C° 0.2 mm 6 mps 747 mmHg 55%
    15:00 +34°C° 0.1 mm 5 mps 747 mmHg 59%
    16:00 +33°C° 0.1 mm 5 mps 747 mmHg 62%
    17:00 +32°C° 0.1 mm 5 mps 747 mmHg 66%
    18:00 +30°C° 0 mm 5 mps 747 mmHg 70%
    19:00 +29°C° 0 mm 5 mps 748 mmHg 73%
    20:00 +28°C° 0 mm 4 mps 749 mmHg 77%
    21:00 +28°C° 0 mm 5 mps 749 mmHg 78%
    22:00 +28°C° 0 mm 5 mps 749 mmHg 79%
    23:00 +28°C° 0 mm 5 mps 749 mmHg 79%

    Day after tomorrow, 23 August, Thursday

    Time Temperature Precipitation Wind Pressure Humidity
    00:00 +28°C° 0 mm 5 mps 749 mmHg 80%
    01:00 +27°C° 0 mm 5 mps 748 mmHg 80%
    02:00 +27°C° 0 mm 5 mps 748 mmHg 81%
    03:00 +27°C° 0 mm 5 mps 748 mmHg 81%
    04:00 +27°C° 0 mm 5 mps 748 mmHg 82%
    05:00 +27°C° 0 mm 5 mps 748 mmHg 82%
    06:00 +28°C° 0 mm 5 mps 749 mmHg 78%
    07:00 +29°C° 0 mm 5 mps 749 mmHg 74%
    08:00 +30°C° 0 mm 5 mps 750 mmHg 70%
    09:00 +33°C° 0 mm 5 mps 750 mmHg 64%
    10:00 +34°C° 0 mm 4 mps 749 mmHg 58%
    11:00 +36°C° 0 mm 4 mps 749 mmHg 51%
    12:00 +36°C° 0 mm 4 mps 749 mmHg 50%
    13:00 +36°C° 0 mm 4 mps 748 mmHg 49%
    14:00 +36°C° 0 mm 4 mps 747 mmHg 49%
    15:00 +35°C° 0 mm 4 mps 747 mmHg 52%
    16:00 +34°C° 0 mm 4 mps 747 mmHg 56%
    17:00 +33°C° 0 mm 4 mps 747 mmHg 59%
    18:00 +32°C° 0.1 mm 4 mps 748 mmHg 64%
    19:00 +30°C° 0.1 mm 4 mps 748 mmHg 69%
    20:00 +29°C° 0.1 mm 4 mps 749 mmHg 74%
    21:00 +28°C° 0 mm 4 mps 749 mmHg 76%
    22:00 +28°C° 0 mm 4 mps 749 mmHg 77%
    23:00 +28°C° 0 mm 4 mps 749 mmHg 78%

    24 August, Friday

    Time Temperature Precipitation Wind Pressure Humidity
    00:00 +28°C° 0 mm 4 mps 748 mmHg 79%
    01:00 +27°C° 0 mm 4 mps 748 mmHg 80%
    02:00 +27°C° 0 mm 4 mps 747 mmHg 81%
    03:00 +27°C° 0 mm 4 mps 747 mmHg 81%
    04:00 +27°C° 0 mm 4 mps 747 mmHg 82%
    05:00 +27°C° 0 mm 4 mps 747 mmHg 83%
    06:00 +28°C° 0 mm 4 mps 748 mmHg 79%
    07:00 +29°C° 0 mm 4 mps 749 mmHg 74%
    08:00 +30°C° 0 mm 4 mps 749 mmHg 70%
    09:00 +32°C° 0.1 mm 4 mps 749 mmHg 65%
    10:00 +34°C° 0.1 mm 4 mps 749 mmHg 59%
    11:00 +35°C° 0.1 mm 4 mps 749 mmHg 53%
    12:00 +35°C° 1.5 mm 4 mps 748 mmHg 54%
    13:00 +35°C° 1.5 mm 3 mps 748 mmHg 55%
    14:00 +34°C° 1.5 mm 3 mps 747 mmHg 56%
    15:00 +34°C° 0.4 mm 3 mps 747 mmHg 60%
    16:00 +33°C° 0.4 mm 3 mps 747 mmHg 64%
    17:00 +31°C° 0.4 mm 3 mps 747 mmHg 68%
    18:00 +30°C° 0.1 mm 3 mps 748 mmHg 71%
    19:00 +29°C° 0.1 mm 3 mps 748 mmHg 75%
    20:00 +28°C° 0.1 mm 3 mps 749 mmHg 78%
    21:00 +28°C° 0 mm 3 mps 749 mmHg 80%
    22:00 +28°C° 0 mm 3 mps 749 mmHg 81%
    23:00 +28°C° 0 mm 3 mps 749 mmHg 82%

    25 August, Saturday

    Time Temperature Precipitation Wind Pressure Humidity
    00:00 +27°C° 0 mm 4 mps 748 mmHg 83%
    01:00 +27°C° 0 mm 4 mps 747 mmHg 84%
    02:00 +27°C° 0 mm 4 mps 747 mmHg 85%
    03:00 +27°C° 0 mm 4 mps 747 mmHg 85%
    04:00 +27°C° 0 mm 4 mps 747 mmHg 85%
    05:00 +27°C° 0 mm 4 mps 747 mmHg 85%
    06:00 +28°C° 0 mm 4 mps 748 mmHg 81%
    07:00 +29°C° 0 mm 5 mps 749 mmHg 76%
    08:00 +30°C° 0 mm 5 mps 749 mmHg 71%
    09:00 +32°C° 0 mm 5 mps 749 mmHg 66%
    10:00 +34°C° 0 mm 5 mps 749 mmHg 61%
    11:00 +35°C° 0 mm 5 mps 748 mmHg 55%
    12:00 +35°C° 0.1 mm 5 mps 748 mmHg 54%
    13:00 +35°C° 0.1 mm 5 mps 747 mmHg 54%
    14:00 +36°C° 0.1 mm 5 mps 746 mmHg 53%
    15:00 +34°C° 0.1 mm 5 mps 746 mmHg 57%
    16:00 +33°C° 0.1 mm 5 mps 746 mmHg 62%
    17:00 +32°C° 0.1 mm 4 mps 746 mmHg 66%
    18:00 +30°C° 0 mm 4 mps 747 mmHg 70%
    19:00 +29°C° 0 mm 4 mps 748 mmHg 74%
    20:00 +28°C° 0 mm 4 mps 748 mmHg 78%
    21:00 +28°C° 0 mm 4 mps 748 mmHg 79%
    22:00 +28°C° 0 mm 5 mps 748 mmHg 80%
    23:00 +28°C° 0 mm 5 mps 748 mmHg 81%

    26 August, Sunday

    Time Temperature Precipitation Wind Pressure Humidity
    00:00 +28°C° 0 mm 5 mps 747 mmHg 82%
    01:00 +28°C° 0 mm 5 mps 747 mmHg 82%
    02:00 +27°C° 0 mm 5 mps 746 mmHg 83%
    03:00 +27°C° 0 mm 5 mps 746 mmHg 83%
    04:00 +27°C° 0 mm 5 mps 746 mmHg 83%
    05:00 +27°C° 0 mm 5 mps 747 mmHg 84%
    06:00 +28°C° 0 mm 5 mps 747 mmHg 79%
    07:00 +29°C° 0 mm 5 mps 748 mmHg 75%
    08:00 +30°C° 0 mm 5 mps 749 mmHg 71%
    09:00 +33°C° 0 mm 5 mps 748 mmHg 65%
    10:00 +34°C° 0 mm 5 mps 748 mmHg 60%
    11:00 +35°C° 0 mm 5 mps 748 mmHg 55%
    12:00 +35°C° 0.7 mm 5 mps 747 mmHg 55%
    13:00 +35°C° 0.7 mm 5 mps 746 mmHg 56%
    14:00 +35°C° 0.7 mm 5 mps 746 mmHg 57%
    15:00 +34°C° 0.1 mm 4 mps 746 mmHg 60%
    16:00 +33°C° 0.1 mm 4 mps 746 mmHg 63%
    17:00 +32°C° 0.1 mm 4 mps 746 mmHg 67%
    18:00 +30°C° 0 mm 4 mps 747 mmHg 71%
    19:00 +29°C° 0 mm 4 mps 747 mmHg 75%
    20:00 +28°C° 0 mm 4 mps 748 mmHg 79%
    21:00 +28°C° 0 mm 4 mps 748 mmHg 80%
    22:00 +28°C° 0 mm 4 mps 748 mmHg 81%
    23:00 +28°C° 0 mm 4 mps 748 mmHg 82%
    Show more